When you browse on this site, cookies collect data to enhance your experience and personalize the content and advertising you see.
Visit our Privacy Policy to learn more. By continuing to use the site, you agree to this use of cookies and data.
  • în România
  • Lista ţărilor
  • Pe 7 zile
  • Temperatura apei
  • Meteo pe hartă
  • Widget-uri
  • user-avatar
    Intrare

    Meteo pe oră la San Miguel de Tucumán

    Astăzi, 25 Mai, Luni

    Timp Temperatura Precipitaţii Vânt Presiune Umiditate
    00:00 +16°C° 0 mm 1 m/s 720 mmHg 51%
    01:00 +15°C° 0 mm 1 m/s 720 mmHg 50%
    02:00 +15°C° 0 mm 1 m/s 719 mmHg 50%
    03:00 +15°C° 0 mm 1 m/s 720 mmHg 50%
    04:00 +15°C° 0 mm 1 m/s 720 mmHg 51%
    05:00 +14°C° 0 mm 1 m/s 720 mmHg 51%
    06:00 +15°C° 0 mm 2 m/s 721 mmHg 50%
    07:00 +15°C° 0 mm 2 m/s 722 mmHg 48%
    08:00 +16°C° 0 mm 2 m/s 723 mmHg 46%
    09:00 +19°C° 0 mm 3 m/s 724 mmHg 39%
    10:00 +21°C° 0 mm 3 m/s 725 mmHg 32%
    11:00 +25°C° 0 mm 3 m/s 725 mmHg 25%
    12:00 +25°C° 0 mm 3 m/s 725 mmHg 24%
    13:00 +26°C° 0 mm 2 m/s 725 mmHg 23%
    14:00 +27°C° 0 mm 2 m/s 724 mmHg 22%
    15:00 +25°C° 0 mm 2 m/s 724 mmHg 27%
    16:00 +24°C° 0 mm 1 m/s 724 mmHg 32%
    17:00 +22°C° 0 mm 1 m/s 723 mmHg 37%
    18:00 +20°C° 0 mm 1 m/s 724 mmHg 40%
    19:00 +19°C° 0 mm 1 m/s 724 mmHg 43%
    20:00 +16°C° 0 mm 1 m/s 724 mmHg 47%
    21:00 +15°C° 0 mm 1 m/s 724 mmHg 47%
    22:00 +15°C° 0 mm 1 m/s 724 mmHg 47%
    23:00 +15°C° 0 mm 1 m/s 725 mmHg 47%

    Mâine, 26 Mai, Marţi

    Timp Temperatura Precipitaţii Vânt Presiune Umiditate
    00:00 +14°C° 0 mm 1 m/s 724 mmHg 48%
    01:00 +14°C° 0 mm 1 m/s 724 mmHg 49%
    02:00 +13°C° 0 mm 1 m/s 724 mmHg 49%
    03:00 +13°C° 0 mm 1 m/s 723 mmHg 49%
    04:00 +13°C° 0 mm 1 m/s 723 mmHg 49%
    05:00 +13°C° 0 mm 1 m/s 723 mmHg 50%
    06:00 +13°C° 0 mm 1 m/s 723 mmHg 49%
    07:00 +14°C° 0 mm 1 m/s 723 mmHg 49%
    08:00 +14°C° 0 mm 1 m/s 724 mmHg 49%
    09:00 +18°C° 0 mm 1 m/s 724 mmHg 44%
    10:00 +21°C° 0 mm 1 m/s 724 mmHg 38%
    11:00 +24°C° 0 mm 1 m/s 724 mmHg 33%
    12:00 +25°C° 0 mm 2 m/s 723 mmHg 32%
    13:00 +26°C° 0 mm 2 m/s 722 mmHg 31%
    14:00 +27°C° 0 mm 2 m/s 721 mmHg 31%
    15:00 +26°C° 0 mm 2 m/s 721 mmHg 36%
    16:00 +24°C° 0 mm 2 m/s 721 mmHg 41%
    17:00 +23°C° 0 mm 1 m/s 720 mmHg 46%
    18:00 +21°C° 0 mm 1 m/s 720 mmHg 50%
    19:00 +19°C° 0 mm 1 m/s 720 mmHg 54%
    20:00 +16°C° 0 mm 1 m/s 720 mmHg 58%
    21:00 +16°C° 0 mm 1 m/s 720 mmHg 60%
    22:00 +16°C° 0 mm 1 m/s 720 mmHg 61%
    23:00 +15°C° 0 mm 1 m/s 720 mmHg 62%

    Poimâine, 27 Mai, Miercuri

    Timp Temperatura Precipitaţii Vânt Presiune Umiditate
    00:00 +15°C° 0 mm 1 m/s 720 mmHg 63%
    01:00 +14°C° 0 mm 1 m/s 719 mmHg 63%
    02:00 +14°C° 0 mm 1 m/s 719 mmHg 63%
    03:00 +14°C° 0 mm 1 m/s 719 mmHg 63%
    04:00 +13°C° 0 mm 1 m/s 719 mmHg 63%
    05:00 +12°C° 0 mm 0 m/s 718 mmHg 63%
    06:00 +14°C° 0 mm 1 m/s 719 mmHg 61%
    07:00 +14°C° 0 mm 1 m/s 719 mmHg 59%
    08:00 +15°C° 0 mm 1 m/s 719 mmHg 57%
    09:00 +19°C° 0 mm 1 m/s 719 mmHg 50%
    10:00 +22°C° 0 mm 1 m/s 720 mmHg 44%
    11:00 +25°C° 0 mm 2 m/s 720 mmHg 37%
    12:00 +26°C° 0 mm 2 m/s 719 mmHg 35%
    13:00 +27°C° 0 mm 2 m/s 718 mmHg 34%
    14:00 +29°C° 0 mm 2 m/s 717 mmHg 32%
    15:00 +27°C° 0 mm 2 m/s 717 mmHg 37%
    16:00 +25°C° 0 mm 2 m/s 717 mmHg 42%
    17:00 +24°C° 0 mm 2 m/s 716 mmHg 47%
    18:00 +22°C° 0 mm 1 m/s 717 mmHg 52%
    19:00 +20°C° 0 mm 1 m/s 717 mmHg 56%
    20:00 +19°C° 0 mm 1 m/s 717 mmHg 60%
    21:00 +18°C° 0 mm 1 m/s 717 mmHg 61%
    22:00 +18°C° 0 mm 1 m/s 717 mmHg 62%
    23:00 +16°C° 0 mm 1 m/s 717 mmHg 64%

    28 Mai, Joi

    Timp Temperatura Precipitaţii Vânt Presiune Umiditate
    00:00 +16°C° 0 mm 1 m/s 716 mmHg 65%
    01:00 +15°C° 0 mm 1 m/s 716 mmHg 66%
    02:00 +15°C° 0 mm 1 m/s 716 mmHg 68%
    03:00 +15°C° 0 mm 1 m/s 715 mmHg 69%
    04:00 +14°C° 0 mm 1 m/s 715 mmHg 70%
    05:00 +14°C° 0 mm 1 m/s 715 mmHg 71%
    06:00 +13°C° 0 mm 0 m/s 716 mmHg 69%
    07:00 +14°C° 0 mm 0 m/s 716 mmHg 67%
    08:00 +14°C° 0 mm 0 m/s 716 mmHg 66%
    09:00 +19°C° 0 mm 1 m/s 716 mmHg 58%
    10:00 +22°C° 0 mm 1 m/s 717 mmHg 50%
    11:00 +24°C° 0 mm 1 m/s 717 mmHg 43%
    12:00 +25°C° 0 mm 1 m/s 716 mmHg 41%
    13:00 +27°C° 0 mm 1 m/s 715 mmHg 39%
    14:00 +28°C° 0 mm 1 m/s 714 mmHg 37%
    15:00 +27°C° 0 mm 1 m/s 714 mmHg 41%
    16:00 +25°C° 0 mm 1 m/s 714 mmHg 46%
    17:00 +24°C° 0 mm 1 m/s 713 mmHg 50%
    18:00 +22°C° 0 mm 1 m/s 714 mmHg 55%
    19:00 +21°C° 0 mm 1 m/s 714 mmHg 59%
    20:00 +19°C° 0 mm 1 m/s 714 mmHg 64%
    21:00 +19°C° 0 mm 1 m/s 714 mmHg 65%
    22:00 +18°C° 0 mm 1 m/s 714 mmHg 66%
    23:00 +18°C° 0 mm 1 m/s 714 mmHg 66%

    29 Mai, Vineri

    Timp Temperatura Precipitaţii Vânt Presiune Umiditate
    00:00 +18°C° 0 mm 1 m/s 714 mmHg 67%
    01:00 +16°C° 0 mm 1 m/s 714 mmHg 68%
    02:00 +15°C° 0 mm 0 m/s 713 mmHg 69%
    03:00 +15°C° 0 mm 0 m/s 713 mmHg 69%
    04:00 +14°C° 0 mm 0 m/s 713 mmHg 69%
    05:00 +14°C° 0 mm 0 m/s 714 mmHg 70%
    06:00 +15°C° 0 mm 1 m/s 714 mmHg 68%
    07:00 +16°C° 0 mm 1 m/s 715 mmHg 66%
    08:00 +16°C° 0 mm 1 m/s 715 mmHg 64%
    09:00 +19°C° 0 mm 1 m/s 715 mmHg 58%
    10:00 +21°C° 0 mm 2 m/s 716 mmHg 52%
    11:00 +24°C° 0 mm 2 m/s 716 mmHg 46%
    12:00 +24°C° 0 mm 2 m/s 715 mmHg 44%
    13:00 +25°C° 0 mm 3 m/s 715 mmHg 42%
    14:00 +26°C° 0 mm 3 m/s 714 mmHg 40%
    15:00 +25°C° 0 mm 2 m/s 714 mmHg 44%
    16:00 +24°C° 0 mm 2 m/s 715 mmHg 48%
    17:00 +23°C° 0 mm 1 m/s 715 mmHg 52%
    18:00 +21°C° 0 mm 1 m/s 715 mmHg 57%
    19:00 +19°C° 0 mm 1 m/s 716 mmHg 62%
    20:00 +18°C° 0 mm 1 m/s 717 mmHg 67%
    21:00 +16°C° 0 mm 1 m/s 717 mmHg 68%
    22:00 +16°C° 0 mm 1 m/s 718 mmHg 69%
    23:00 +16°C° 0 mm 2 m/s 718 mmHg 70%

    30 Mai, Sâmbătă

    Timp Temperatura Precipitaţii Vânt Presiune Umiditate
    00:00 +15°C° 0 mm 2 m/s 719 mmHg 72%
    01:00 +15°C° 0 mm 2 m/s 719 mmHg 74%
    02:00 +14°C° 0 mm 2 m/s 719 mmHg 76%
    03:00 +14°C° 0 mm 2 m/s 719 mmHg 76%
    04:00 +14°C° 0 mm 2 m/s 720 mmHg 76%
    05:00 +14°C° 0 mm 1 m/s 720 mmHg 76%
    06:00 +14°C° 0 mm 2 m/s 721 mmHg 76%
    07:00 +14°C° 0 mm 2 m/s 721 mmHg 76%
    08:00 +13°C° 0 mm 2 m/s 722 mmHg 76%
    09:00 +14°C° 0 mm 2 m/s 722 mmHg 66%
    10:00 +14°C° 0 mm 2 m/s 723 mmHg 55%
    11:00 +14°C° 0 mm 2 m/s 723 mmHg 45%
    12:00 +14°C° 0 mm 3 m/s 722 mmHg 43%
    13:00 +14°C° 0 mm 3 m/s 721 mmHg 41%
    14:00 +14°C° 0 mm 3 m/s 721 mmHg 39%
    15:00 +13°C° 0 mm 3 m/s 721 mmHg 39%
    16:00 +14°C° 0 mm 2 m/s 721 mmHg 39%
    17:00 +13°C° 0 mm 2 m/s 722 mmHg 39%
    18:00 +12°C° 0 mm 2 m/s 722 mmHg 39%
    19:00 +11°C° 0 mm 1 m/s 723 mmHg 40%
    20:00 +11°C° 0 mm 1 m/s 724 mmHg 40%
    21:00 +10°C° 0 mm 1 m/s 724 mmHg 42%
    22:00 +9°C° 0 mm 1 m/s 724 mmHg 44%
    23:00 +8°C° 0 mm 1 m/s 725 mmHg 46%
    Arată mai mult